Regional Weather Roundup
Issued by NWS

Home | Current Version | Previous Version | Graphics & Text | Print | Product List | Glossary On
Versions: 1 2 3 4 5 6 7 8 9 10 11 12 13 14 15 16 17 18 19 20 21 22 23 24 25 26 27 28 29 30 31 32 33 34 35 36 37 38 39 40 41 42 43 44 45 46 47 48 49 50
000
ASUS43 KDMX 251608
RWRIA

WEATHER ROUNDUP FOR IOWA
NATIONAL WEATHER SERVICE DES MOINES IA
1100 AM CDT WED MAY 25 2016

NOTE: "FAIR" INDICATES FEW OR NO CLOUDS BELOW 12,000 FEET WITH NO
SIGNIFICANT WEATHER AND/OR OBSTRUCTIONS TO VISIBILITY.

* - THESE STATIONS ARE NOT NWS STATIONS...THUS NOT UNDER NWS
QUALITY CONTROL.  THEY ALSO DO NOT REPORT WEATHER SUCH
AS PRECIPITATION OR FOG.

IAZ001>003-012>014-020>022-031>034-043>046-251700-
   NORTHWEST IOWA

CITY           SKY/WX    TMP DP  RH WIND       PRES   REMARKS
CARROLL *      PTSUNNY   70  66  88 S15       29.85S
CHEROKEE *     CLOUDY    68  64  88 S18G24    29.82R
DENISON *      MOSUNNY   70  64  83 S12G24    29.82S
LE MARS *      MOSUNNY   72  63  73 S20       29.85R
ORANGE CITY *  SUNNY     72  63  73 S16       29.84R
SHELDON *      SUNNY     72  63  73 S15       29.82R
SIOUX CITY     MOSUNNY   73  62  68 S10       29.84R
SPENCER        CLOUDY    72  63  73 SE20      29.79F
STORM LAKE *   SUNNY     68  63  83 S18G28    29.82F
$$

IAZ055>058-069>071-079>083-090>094-251700-
   SOUTHWEST IOWA

CITY           SKY/WX    TMP DP  RH WIND       PRES   REMARKS
ATLANTIC *     SUNNY     70  63  78 S14G21    29.86F
AUDUBON *        N/A     70  63  78 S13G18    29.87F
CLARINDA *       N/A     68  63  83 MISG      29.90F
COUNCIL BLFS * SUNNY     68  61  77 S7        29.87S
CRESTON *      SUNNY     68  61  77 SW13      29.93R
HARLAN  *      SUNNY     68  63  83 S12       29.89F
LAMONI         PTSUNNY   69  64  84 E5        29.90F
RED OAK *      SUNNY     68  61  77 S9        29.88F
SHENANDOAH *   CLOUDY    66  63  88 S30G39    29.85F
$$

IAZ047>049-059>061-072>074-084-251700-
   CENTRAL IOWA

CITY           SKY/WX    TMP DP  RH WIND       PRES   REMARKS
AMES           CLOUDY    70  66  87 S8        29.88S
ANKENY *       CLOUDY    70  68  94 S8        29.87F
BOONE *        PTSUNNY   70  66  88 S12       29.87F
CHARITON *     MOSUNNY   72  64  78 SW13      29.91F
DES MOINES     CLOUDY    71  65  81 S10       29.87F
GRINNELL*      CLOUDY    68  64  88 S8        29.91F FOG
KNOXVILLE *    PTSUNNY   72  64  78 SW9       29.89S
MARSHALLTOWN   CLOUDY    67  65  93 S12       29.89S
NEWTON *       CLOUDY    68  68 100 S8        29.90S
PELLA *        PTSUNNY   72  66  83 S8        29.91F
PERRY *        CLOUDY    72  68  88 S15       29.86F
$$

IAZ004>006-015-016-023>025-035-036-251700-
   NORTH CENTRAL IOWA

CITY           SKY/WX    TMP DP  RH WIND       PRES   REMARKS
ALGONA *       PTSUNNY   68  64  88 S13       29.85F
CLARION *      CLOUDY    64  64 100 S14       29.87F
ESTHERVILLE    CLOUDY    70  64  81 SE20G25   29.81F
FORT DODGE *   CLOUDY    68  61  77 S12       29.86F
MASON CITY     LGT RAIN  67  66  97 S9        29.89R FOG
FOREST CITY *  CLOUDY    66  64  94 S8        29.88S
WEBSTER CITY * PTSUNNY   68  66  94 S13       29.85F
IOWA FALLS *   LGT RAIN  64  61  88 S7        29.90F
$$

IAZ007>011-017>019-026>030-037>042-050>054-066-251700-
   NORTHEAST IOWA

CITY           SKY/WX    TMP DP  RH WIND       PRES   REMARKS
CEDAR RAPIDS   CLOUDY    73  67  81 SE9G17    29.89F
CHARLES CITY * PTSUNNY   68  68 100 S12       29.89R
CLINTON *      CLOUDY    76  65  68 SE15      29.93F
DECORAH *      PTSUNNY   70  63  78 SE9G18    29.88R
DUBUQUE        CLOUDY    74  62  66 SE12      29.93F
MONTICELLO *   SUNNY     75  63  64 SE16      29.91F
OELWEIN *      CLOUDY    70  68  94 SE16      29.89F
WATERLOO       CLOUDY    70  63  78 S7        29.88S
$$

IAZ064-065-067-068-078-251700-
   EAST CENTRAL IOWA

CITY           SKY/WX    TMP DP  RH WIND       PRES   REMARKS
DAVENPORT      CLOUDY    78  61  55 SE14      29.92F HX  80
IOWA CITY      CLOUDY    74  66  76 SE12      29.92F
MT. PLEASANT * PTSUNNY   75  66  73 S10       29.93S
MUSCATINE *    MOSUNNY   77  66  69 S10       29.92S
QUAD CITIES    MOSUNNY   79  63  57 SE15      29.91F HX  80
$$

IAZ062-063-075>077-085>089-095>099-251700-
   SOUTHEAST IOWA

CITY           SKY/WX    TMP DP  RH WIND       PRES   REMARKS
BURLINGTON     CLOUDY    72  66  81 S12       29.93S
FAIRFIELD *      N/A    N/A N/A N/A MISG        N/A
FORT MADISON * SUNNY     73  64  73 S7        29.93F
KEOKUK *       SUNNY     73  66  78 S10G17    29.93F
OSKALOOSA *      N/A     73  64  73 S12G17    29.92R
OTTUMWA        CLOUDY    74  64  71 S16       29.91S
WASHINGTON *   MOSUNNY   75  72  88 S15       29.93S
$$

ABBREVIATIONS USED IN REMARKS
   TC - TEMPERATURES IN CELSIUS
  WCI - WIND CHILL INDEX
   HX - HEAT INDEX
  VSB - VISIBILITY
$$




USA.gov is the U.S. government's official web portal to all federal, state and local government web resources and services.